Home   Weather   Flekkefjord   Past weeks

Flag for Norway Past Weather in Flekkefjord, Norway — Yesterday and Last 2 Weeks

Now
42 °F

Passing clouds.


Feels Like: 38 °F
Forecast: 35 / 41 °F
Wind: 6 mph from Northwest

Location: Lista Fyr

Current Time: Jan 23, 2017 at 8:25:19 pm

Latest Report: Jan 23, 2017 at 7:00 pm


Visibility: 17 mi

Pressure: 30.14 "Hg

Humidity: 89%

Dew Point: 39 °F

Location of FlekkefjordLocation

Past Weather in Flekkefjord — Graph

°F

Flekkefjord Temperature Yesterday

Maximum temperature yesterday: 43 °F (at 3:00 pm)
Minimum temperature yesterday: 40 °F (at 4:00 am)
Average temperature yesterday: 41 °F

High & Low Weather Summary for the Past Weeks

 TemperatureHumidityPressure
High46 °F (Jan 21, 11:00 am)100% (Jan 18, 7:00 am)30.50 "Hg (Jan 18, 7:00 am)
Low21 °F (Jan 16, 4:00 am)43% (Jan 15, 2:00 pm)28.70 "Hg (Jan 11, 10:00 am)
Average40 °F84%29.95 "Hg
* Reported Jan 8 7:00 pm — Jan 23 7:00 pm, Flekkefjord, Weather by CustomWeather, © 2017

Note: Actual official high and low records may vary slightly from our data, if they occured in-between our weather recording intervals... More about our weather records

Advertising

Flekkefjord Weather History for the Previous 24 Hours

Scroll right to see more
 ConditionsComfort  
Time TempWeatherWind HumidityBarometerVisibility
7:00 pm
Mon, Jan 23
42 °FPassing clouds.6 mph89%30.14 "Hg17 mi
6:00 pm42 °FQuite cool.6 mph86%30.13 "HgN/A
5:00 pm42 °FQuite cool.7 mph85%30.13 "HgN/A
4:00 pm43 °FQuite cool.7 mph84%30.14 "HgN/A
3:00 pm43 °FQuite cool.5 mph83%30.14 "HgN/A
2:00 pm43 °FQuite cool.6 mph80%30.14 "HgN/A
1:00 pm42 °FPartly sunny.3 mph80%30.15 "Hg16 mi
12:00 pm43 °FQuite cool.6 mph72%30.16 "HgN/A
11:00 am43 °FQuite cool.3 mph78%30.16 "HgN/A
10:00 am42 °FOvercast.3 mph80%30.16 "Hg14 mi
9:00 am42 °FQuite cool.6 mph80%30.15 "HgN/A
8:00 am42 °FQuite cool.6 mph79%30.14 "HgN/A
7:00 am42 °FOvercast.5 mph76%30.15 "Hg14 mi
6:00 am42 °FQuite cool.6 mph77%30.15 "HgN/A
5:00 am42 °FQuite cool.6 mph75%30.16 "HgN/A
4:00 am42 °FQuite cool.7 mph70%30.16 "HgN/A
3:00 am42 °FQuite cool.9 mph73%30.17 "HgN/A
2:00 am42 °FQuite cool.9 mph73%30.17 "HgN/A
1:00 am43 °FQuite cool.9 mph80%30.19 "HgN/A
12:00 am42 °FQuite cool.5 mph78%30.19 "HgN/A
11:00 pm
Sun, Jan 22
42 °FQuite cool.7 mph81%30.20 "HgN/A
10:00 pm41 °FQuite cool.8 mph83%30.21 "HgN/A
9:00 pm42 °FQuite cool.7 mph83%30.22 "HgN/A
8:00 pm42 °FQuite cool.8 mph86%30.22 "HgN/A
Weather by CustomWeather, © 2017

See weather overviewHow to use our weather pages